| time (UTC) | temp F | wind direction | speed knots | gust knots | rain 1hr in | rain 24hr in | rain mn in | humidity % | barometer mb |
| 20260505151530 | 67 | 209 | 7.8 | 14.8 | 0.00 | 0.00 | 0.00 | 52 | 1010.6 |
| 20260505124505 | 56 | 232 | 7.0 | 11.3 | 0.00 | 0.05 | 0.00 | 65 | 1011.4 |
| 20260505123002 | 55 | 198 | 6.1 | 10.4 | 0.00 | 0.05 | 0.00 | 64 | 1011.4 |
| 20260505121502 | 56 | 246 | 3.5 | 7.8 | 0.00 | 0.05 | 0.00 | 64 | 1011.3 |
| 20260505120118 | 55 | 231 | 5.2 | 8.7 | 0.00 | 0.05 | 0.00 | 67 | 1011.2 |
| 20260505114601 | 54 | 207 | 4.3 | 10.4 | 0.00 | 0.07 | 0.00 | 67 | 1011.0 |
| 20260505113059 | 53 | 173 | 6.1 | 11.3 | 0.00 | 0.07 | 0.00 | 67 | 1011.1 |
| 20260505111552 | 52 | 183 | 7.0 | 11.3 | 0.00 | 0.07 | 0.00 | 70 | 1011.1 |
| 20260505101538 | 49 | 197 | 11.3 | 14.8 | 0.00 | 0.09 | 0.00 | 75 | 1010.6 |
| 20260505100037 | 49 | 219 | 7.8 | 16.5 | 0.00 | 0.09 | 0.00 | 76 | 1010.4 |
| 20260505094537 | 48 | 206 | 13.0 | 21.7 | 0.00 | 0.11 | 0.00 | 78 | 1010.2 |
| 20260505093033 | 47 | 193 | 11.3 | 18.2 | 0.00 | 0.11 | 0.00 | 78 | 1009.9 |
| 20260505091532 | 47 | 190 | 9.6 | 26.9 | 0.00 | 0.11 | 0.00 | 78 | 1009.8 |
| 20260505090036 | 47 | 225 | 14.8 | 20.9 | 0.00 | 0.11 | 0.00 | 78 | 1009.7 |
| 20260505084530 | 47 | 217 | 12.2 | 20.0 | 0.00 | 0.11 | 0.00 | 78 | 1009.7 |
| 20260505083029 | 47 | 218 | 14.8 | 23.5 | 0.00 | 0.11 | 0.00 | 78 | 1009.6 |
| 20260505081541 | 47 | 212 | 13.0 | 23.5 | 0.00 | 0.11 | 0.00 | 78 | 1009.5 |
| 20260505080027 | 46 | 196 | 12.2 | 19.1 | 0.00 | 0.11 | 0.00 | 78 | 1009.3 |
| 20260505074527 | 46 | 236 | 8.7 | 17.4 | 0.00 | 0.11 | 0.00 | 78 | 1009.0 |
| 20260505073027 | 46 | 209 | 10.4 | 19.1 | 0.00 | 0.11 | 0.00 | 78 | 1009.0 |
| 20260505071542 | 46 | 210 | 10.4 | 20.0 | 0.00 | 0.11 | 0.00 | 78 | 1008.8 |
| 20260505070020 | 47 | 204 | 11.3 | 22.6 | 0.00 | 0.11 | 0.00 | 77 | 1008.6 |
| 20260505064524 | 47 | 208 | 16.5 | 22.6 | 0.00 | 0.19 | 0.00 | 78 | 1008.5 |
| 20260505063017 | 47 | 209 | 13.9 | 25.2 | 0.00 | 0.19 | 0.00 | 78 | 1008.1 |
| 20260505061515 | 46 | 203 | 13.9 | 26.1 | 0.00 | 0.19 | 0.00 | 78 | 1007.9 |
| 20260505060013 | 46 | 227 | 15.6 | 25.2 | 0.00 | 0.19 | 0.00 | 78 | 1007.8 |
| 20260505054510 | 46 | 215 | 16.5 | 22.6 | 0.00 | 0.24 | 0.00 | 78 | 1007.4 |
| 20260505053005 | 46 | 210 | 15.6 | 25.2 | 0.00 | 0.24 | 0.00 | 77 | 1007.2 |
| 20260505051600 | 47 | 221 | 17.4 | 23.5 | 0.00 | 0.24 | 0.00 | 77 | 1007.0 |
| 20260505041533 | 47 | 229 | 13.0 | 23.5 | 0.00 | 0.25 | 0.00 | 75 | 1006.2 |
| 20260505040036 | 48 | 241 | 13.0 | 23.5 | 0.00 | 0.25 | 0.00 | 75 | 1006.2 |
| 20260505034522 | 48 | 214 | 13.9 | 26.9 | 0.00 | 0.25 | 0.00 | 73 | 1005.8 |
| 20260505033018 | 49 | 222 | 17.4 | 27.8 | 0.00 | 0.25 | 0.00 | 73 | 1005.7 |
| 20260505031509 | 49 | 210 | 17.4 | 27.8 | 0.00 | 0.25 | 0.00 | 72 | 1005.5 |
| 20260505030005 | 49 | 217 | 18.2 | 29.5 | 0.00 | 0.25 | 0.25 | 71 | 1005.3 |
| 20260505024501 | 50 | 215 | 20.0 | 33.0 | 0.00 | 0.25 | 0.25 | 70 | 1005.0 |
| 20260505023109 | 50 | 215 | 20.0 | 32.2 | 0.00 | 0.25 | 0.25 | 69 | 1004.9 |
| 20260505021601 | 51 | 213 | 19.1 | 30.4 | 0.00 | 0.25 | 0.25 | 67 | 1004.8 |
| 20260505020059 | 50 | 213 | 22.6 | 33.9 | 0.00 | 0.25 | 0.25 | 66 | 1004.6 |
| 20260505014558 | 51 | 202 | 20.0 | 30.4 | 0.00 | 0.25 | 0.25 | 66 | 1004.6 |
| 20260505013054 | 51 | 227 | 21.7 | 32.2 | 0.00 | 0.25 | 0.25 | 64 | 1004.4 |
| 20260505011555 | 51 | 212 | 18.2 | 31.3 | 0.00 | 0.25 | 0.25 | 65 | 1004.1 |
| 20260505010101 | 52 | 210 | 14.8 | 22.6 | 0.00 | 0.25 | 0.25 | 63 | 1003.9 |
| 20260505004552 | 52 | 210 | 19.1 | 30.4 | 0.00 | 0.25 | 0.25 | 62 | 1004.0 |
| 20260505003049 | 52 | 207 | 18.2 | 24.3 | 0.00 | 0.25 | 0.25 | 61 | 1003.8 |
| 20260505001548 | 52 | 236 | 15.6 | 23.5 | 0.00 | 0.25 | 0.25 | 62 | 1003.5 |
| 20260505000047 | 52 | 190 | 14.8 | 27.8 | 0.00 | 0.25 | 0.25 | 60 | 1003.2 |
| 20260504234544 | 51 | 195 | 18.2 | 26.9 | 0.00 | 0.28 | 0.25 | 60 | 1002.8 |
| 20260504233044 | 51 | 214 | 13.0 | 28.7 | 0.00 | 0.28 | 0.25 | 56 | 1002.7 |
| 20260504231542 | 51 | 213 | 23.5 | 32.2 | 0.00 | 0.28 | 0.25 | 52 | 1002.9 |
| 20260504230039 | 52 | 236 | 20.0 | 27.8 | 0.00 | 0.28 | 0.25 | 50 | 1002.5 |
| 20260504224537 | 51 | 196 | 13.0 | 18.2 | 0.00 | 0.31 | 0.25 | 55 | 1002.4 |
| 20260504223036 | 51 | 231 | 15.6 | 26.1 | 0.00 | 0.31 | 0.25 | 53 | 1002.1 |
| 20260504221537 | 52 | 219 | 15.6 | 26.1 | 0.00 | 0.31 | 0.25 | 51 | 1002.1 |
| 20260504220034 | 52 | 208 | 15.6 | 24.3 | 0.00 | 0.31 | 0.25 | 51 | 1002.1 |
| 20260504214539 | 52 | 222 | 17.4 | 26.9 | 0.00 | 0.35 | 0.25 | 50 | 1002.0 |
| 20260504213031 | 52 | 212 | 16.5 | 23.5 | 0.00 | 0.35 | 0.25 | 51 | 1001.9 |
| 20260504211528 | 52 | 246 | 18.2 | 29.5 | 0.00 | 0.35 | 0.25 | 51 | 1001.8 |
| 20260504210025 | 51 | 212 | 16.5 | 28.7 | 0.00 | 0.35 | 0.25 | 53 | 1001.5 |
| 20260504204522 | 51 | 231 | 19.1 | 28.7 | 0.00 | 0.39 | 0.25 | 53 | 1001.4 |
| 20260504203019 | 50 | 219 | 17.4 | 26.9 | 0.00 | 0.39 | 0.25 | 57 | 1001.4 |
| 20260504201518 | 50 | 206 | 18.2 | 28.7 | 0.00 | 0.39 | 0.25 | 58 | 1001.1 |
| 20260504200032 | 50 | 241 | 19.1 | 30.4 | 0.00 | 0.39 | 0.25 | 60 | 1001.0 |
| 20260504194520 | 50 | 223 | 19.1 | 35.6 | 0.00 | 0.45 | 0.25 | 59 | 1000.5 |
| 20260504193013 | 50 | 226 | 20.9 | 33.0 | 0.00 | 0.45 | 0.25 | 62 | 1000.3 |
| 20260504191520 | 49 | 220 | 21.7 | 33.9 | 0.00 | 0.45 | 0.25 | 65 | 1000.3 |
| 20260504190011 | 48 | 211 | 22.6 | 30.4 | 0.00 | 0.45 | 0.25 | 68 | 1000.1 |
| 20260504184512 | 48 | 223 | 20.0 | 29.5 | 0.00 | 0.48 | 0.25 | 72 | 999.9 |
| 20260504183111 | 48 | 241 | 21.7 | 32.2 | 0.00 | 0.48 | 0.25 | 72 | 999.8 |
| 20260504181501 | 48 | 241 | 22.6 | 34.8 | 0.00 | 0.48 | 0.25 | 73 | 999.5 |
| 20260504180059 | 47 | 225 | 26.9 | 36.5 | 0.00 | 0.48 | 0.25 | 74 | 999.4 |
| 20260504174606 | 47 | 236 | 26.9 | 37.4 | 0.00 | 0.48 | 0.25 | 76 | 999.2 |
| 20260504173057 | 45 | 241 | 22.6 | 35.6 | 0.00 | 0.48 | 0.25 | 79 | 999.0 |
| 20260504171550 | 45 | 223 | 25.2 | 33.9 | 0.00 | 0.48 | 0.25 | 80 | 998.8 |